Flag for Germany Weather past 2 weeks in Merseburg, Saxony-Anhalt, Germany

Now
95 °F

Sunny.


Feels Like: 94 °F
Forecast: 72 / 95 °F
Wind: 13 mph from South

Location: Leipzig-Schkeuditz

Current Time: Jul 4, 2015 at 2:13:15 PM

Latest Report: Jul 4, 2015 at 1:20 PM


Visibility: 10 mi

Pressure: 30.12 "Hg

Humidity: 28%

Dew point: 57 °F

Location of MerseburgLocation

Historic Weather in Merseburg — Graph

°F

Merseburg temperature yesterday

Maximum temperature yesterday: 93 °F (at 2:50 PM)
Minimum temperature yesterday: 63 °F (at 4:20 AM)
Average temperature yesterday: 80 °F

Past Weeks' High & Low Weather Summary

 TemperatureHumidityPressure
High95 °F (Jul 4, 12:20 PM)100% (Jun 22, 5:20 AM)30.27 "Hg (Jun 22, 5:20 AM)
Low48 °F (Jun 25, 3:20 AM)24% (Jul 2, 6:50 PM)29.62 "Hg (Jun 23, 1:50 AM)
Average65 °F66%30.08 "Hg
* Reported Jun 19 12:20 PM — Jul 4 12:50 PM, Merseburg, Weather by CustomWeather, © 2015

Note: Actual official high and low records may vary slightly from our data, if they occured in-between our weather recording intervals... More about our weather records

Advertising

Merseburg weather history for previous 24 hours

 ConditionsComfort  
Time TempWeatherWind HumidityBarometerVisibility
12:50 PM
Sat, Jul 4
95 °FPassing clouds.9 mph26%30.12 "HgN/A
12:20 PM95 °FSunny.8 mph28%30.12 "Hg10 mi
11:50 AM93 °FSunny.7 mph34%30.12 "Hg10 mi
11:20 AM91 °FSunny.7 mph36%30.15 "Hg10 mi
10:50 AM90 °FSunny.7 mph41%30.15 "Hg10 mi
10:20 AM88 °FSunny.6 mph43%30.15 "Hg10 mi
9:50 AM86 °FSunny.7 mph46%30.15 "Hg10 mi
9:20 AM82 °FSunny.6 mph51%30.15 "Hg10 mi
8:50 AM81 °FSunny.7 mph54%30.15 "Hg10 mi
8:20 AM79 °FSunny.7 mph58%30.15 "Hg10 mi
7:50 AM79 °FSunny.8 mph58%30.15 "Hg10 mi
7:20 AM77 °FSunny.7 mph61%30.15 "Hg10 mi
6:50 AM75 °FSunny.7 mph65%30.15 "Hg10 mi
6:20 AM73 °FSunny.7 mph69%30.15 "Hg10 mi
5:50 AM72 °FClear.7 mph78%30.15 "Hg10 mi
5:20 AM72 °FClear.8 mph78%30.15 "Hg10 mi
4:50 AM72 °FClear.8 mph78%30.15 "Hg10 mi
4:20 AM73 °FClear.7 mph74%30.15 "Hg10 mi
3:50 AM75 °FClear.7 mph69%30.18 "Hg10 mi
3:20 AM73 °FClear.6 mph74%30.18 "Hg10 mi
2:50 AM73 °FClear.7 mph74%30.18 "Hg10 mi
2:20 AM75 °FClear.6 mph69%30.18 "Hg10 mi
1:50 AM75 °FClear.7 mph69%30.18 "Hg10 mi
1:20 AM75 °FClear.9 mph65%30.18 "Hg10 mi
12:50 AM75 °FClear.8 mph65%30.18 "Hg10 mi
12:20 AM75 °FClear.7 mph65%30.18 "Hg10 mi
11:50 PM
Fri, Jul 3
77 °FClear.8 mph61%30.21 "Hg10 mi
11:20 PM79 °FClear.6 mph58%30.21 "Hg10 mi
10:50 PM81 °FPassing clouds.6 mph51%30.21 "HgN/A
10:20 PM82 °FScattered clouds.7 mph48%30.21 "HgN/A
9:50 PM82 °FSunny.6 mph51%30.21 "Hg10 mi
9:20 PM84 °FScattered clouds.6 mph45%30.18 "HgN/A
8:50 PM86 °FScattered clouds.6 mph43%30.18 "HgN/A
8:20 PM88 °FScattered clouds.5 mph40%30.21 "HgN/A
7:50 PM90 °FPassing clouds.3 mph33%30.18 "HgN/A
7:20 PM91 °FPassing clouds.5 mph32%30.18 "HgN/A
6:50 PM93 °FPassing clouds.2 mph30%30.18 "HgN/A
6:20 PM93 °FScattered clouds.2 mph26%30.18 "HgN/A
5:50 PM93 °FScattered clouds.3 mph28%30.18 "HgN/A
5:20 PM93 °FPassing clouds.8 mph28%30.21 "HgN/A
4:50 PM93 °FSunny.6 mph28%30.21 "Hg10 mi
4:20 PM93 °FSunny.8 mph28%30.21 "Hg10 mi
3:50 PM93 °FPassing clouds.7 mph28%30.21 "HgN/A
3:20 PM93 °FSunny.8 mph30%30.21 "Hg10 mi
2:50 PM93 °FSunny.8 mph30%30.21 "Hg10 mi
2:20 PM91 °FSunny.8 mph32%30.21 "Hg10 mi
Weather by CustomWeather, © 2015

See weather overviewHow to use our weather pages